THOR ABLESTAR DEB, 337

Orbit data source: Space-Track

THOR ABLESTAR DEB, 337 is space debris in LEO originally from a launch on Thu, 29 Jun 1961 UTC launched from the Air Force Eastern Test Range (AFETR). Debris objects in space refer to the collection of defunct objects orbiting the Earth. Examples of debris include non-operational satellites, rocket bodies, and fragments generated from explosions, collisions, or faulty payload assembly.

Loading next visibility...
THOR ABLESTAR DEB details
Identifier
337, 1961-015DP
Orbit
LEO
Last TLE update20 hours ago
Origin
Flag of USUSAF SSD (US)
ManufacturerUnknown
MissionSpacecraft
Bus & MotorUnknown
MassUnknown
Launch date (UTC)
1961-06-29 (64 years ago)
Launch vehicleUnknown
Launch site
Air Force Eastern Test Range (AFETR)
Object type
Payload
Rocket body
Debris
Shape & HBRUnknown
Radar Cross SectionSmall (<0.1 m²)

Expand to show TLE details & history

TLE from 20 hours ago
0 THOR ABLESTAR DEB
1 00337U 61015DP  25047.22473030  .00000407  00000-0  47386-3 0  9997
2 00337  67.0109 350.1190 0107083 251.4945 107.4468 13.75938146177918
Epoch: 2025-02-16T05:23Z
Definitive object data (Epoch: 2025-02-16T05:23:36.697Z)
Latitude-0.00003°
Longitude122.75523°
Altitude1,004.791 km
Speed7.338 km/s
True Right ascension23h 20m 28s
True Declination0° 00' 00"
Sunlit
Object was in daylight at TLE epoch
Visualization TLE readout
Latitude66.78841°
Longitude-138.98458°
Altitude1,061.387 km
Speed7.292 km/s
Apparent Right ascension13h 42m 23s
Apparent Declination44° 25' 54"
Sunlit
Object is in daylight
Visualization observer readout
Local Sidereal Time03:51:22
Azimuth22.399° NNE
Elevation-0.803°
Doppler factor1
Orbital elements
Apogee altitude1,055.468 km
Perigee altitude897.952 km
Semi-major axis7,354.847 km
Eccentricity0.0107083
Inclination67.0109°
RAAN350.119°
Arg. of periapsis251.4945°
True anomaly108.61267°
Mean anomaly107.4468°
Eccentric anomaly108.03021°
Mean motion3.44098 °/min
BSTAR0.00047386
Orbital period104.62 mins
Loading maneuver chart data...

THOR ABLESTAR DEB Visibility forecast

Observer location: undefined°, undefined

Span
Click to sort rows by Start time (UTC) header in descending order
Start Az.
Max El. time (UTC)
Max El. Az.
Max El.
End time (UTC)
End Az.
5 mins2025-02-17 04:36:46.609Z12.568° NNE2025-02-17 04:38:46.609Z31.246° NE13.375°2025-02-17 04:41:46.609Z59.617° ENE
11 mins2025-02-17 06:22:46.609Z340.594° N2025-02-17 06:27:46.609Z38.007° NE39.794°2025-02-17 06:33:46.609Z133.764° SE
8 mins2025-02-17 08:11:46.609Z296.453° NW2025-02-17 08:15:46.609Z249.486° W22.429°2025-02-17 08:19:46.609Z207.124° SW
6 mins2025-02-17 19:54:46.609Z129.465° SE2025-02-17 19:57:46.609Z98.695° ESE16.674°2025-02-17 20:00:46.609Z69.717° E
12 mins2025-02-17 21:38:46.609Z212.694° SW2025-02-17 21:43:46.609Z250.262° W43.997°2025-02-17 21:50:46.609Z26.666° NE
7 mins2025-02-17 23:29:46.609Z287.499° WNW2025-02-17 23:32:46.609Z317.634° NNW17.522°2025-02-17 23:36:46.609Z357.017° N
|